Weather Roundup
Issued by NWS Chicago, IL

Home | Current Version | Previous Version | Graphics & Text | Print | Product List | Glossary On
Versions: 1 2 3 4 5 6 7 8 9 10 11 12 13 14 15 16 17 18 19 20 21 22 23 24 25 26 27 28 29 30 31 32 33 34 35 36 37 38 39 40 41 42 43 44 45 46 47 48 49 50
574
NZUS59 KLOT 241303
HRRLOT

CHICAGO AREA WEATHER ROUNDUP
NATIONAL WEATHER SERVICE CHICAGO/ROMEOVILLE IL
800 AM CDT WED MAY 24 2017

NOTE: "FAIR" INDICATES FEW OR NO CLOUDS BELOW 12,000 FEET WITH NO
SIGNIFICANT WEATHER AND/OR OBSTRUCTIONS TO VISIBILITY.

* THESE STATIONS ARE NOT UNDER NWS QUALITY CONTROL. THEY ALSO MAY NOT
  REPORT WEATHER SUCH AS PRECIPITATION OR FOG.

ILZ005-006-012>014-019>023-241400-
NORTHEAST ILLINOIS

CITY           SKY/WX    TMP DP  RH WIND       PRES   REMARKS
OHARE          LGT RAIN  55  52  89 N12       29.58S
MIDWAY         LGT RAIN  55  53  93 NE12      29.57F
AURORA         PTSUNNY   57  54  89 N9        29.59F
LANSING*       CLOUDY    54  54 100 N7        29.58S FOG
JOLIET*        CLOUDY    57  55  92 NE7       29.59R
WAUKEGAN       LGT RAIN  52  52 100 N9G18     29.59F FOG
DUPAGE AIRPORT CLOUDY    55  54  96 NE13      29.57F
WHEELING       CLOUDY    53  53 100 N10       29.60S
KANKAKEE*      CLOUDY    56  55  97 CALM      29.57S FOG
MORRIS*        CLOUDY    56  53  91 CALM      29.58S
LEWIS AIRPORT* CLOUDY    55  55 100 NE10      29.58S
NORTHERLY ISL    N/A     52  50  93 N13         N/A
$$

WIZ051-052-058>065-066-070>072-241400-
SOUTHEAST WISCONSIN

CITY           SKY/WX    TMP DP  RH WIND       PRES   REMARKS
MILWAUKEE      LGT RAIN  49  48  97 N8        29.65S VSB 3/4
KENOSHA*       LGT RAIN  50  49  96 N9        29.62F
RACINE*        LGT RAIN  48  46  93 N12       29.65S FOG
WAUKESHA       CLOUDY    48  48 100 NE6       29.65F FOG
$$

INZ001>003-010>013-019-020-241400-
NORTHWEST INDIANA

CITY           SKY/WX    TMP DP  RH WIND       PRES   REMARKS
GARY*          CLOUDY    54  52  94 NW5       29.58S FOG
MICHIGAN CITY* NOT AVBL
RENSSELAER*    NOT AVBL
VALPARAISO     CLOUDY    57  54  89 NE7       29.56S
$$

LMZ740>746-241400-
SOUTHERN LAKE MICHIGAN

STATION/POSITION TIME  SKY/WX   TEMP WIND        PRES    VSBY
                                AIR  DIR/SP/G
                 (UTC)          (F)  (DEG/KT/KT) (MB)    (MI)
HARRISON CRIB    1240            53   10/ 17/ 19   N/A
BURNHAM HARBOR   1300            52  350/ 11/ 15   N/A
CALUMET HARBOR   1230            52  340/  9/ 13 1001.2F
BURNS HARBOR     1240            53   40/ 17/ 20 1001.4F
MICHIGAN CITY    1240            52   10/ 20/ 22   N/A
$$

ABBREVIATIONS USED IN REMARKS
   TC - TEMPERATURE IN CELSIUS
  WCI - WIND CHILL INDEX
   HX - HEAT INDEX
  VSB - VISIBILITY
$$




USA.gov is the U.S. government's official web portal to all federal, state and local government web resources and services.